Change the Weather History Date:

Saturday, May 11, 2013

  Actual Average Record
Temperature  
Mean Temperature 49 °F -  
Max Temperature 57 °F 73 °F 91 °F (2011)
Min Temperature 39 °F 51 °F 32 °F (1966)
Degree Days  
Heating Degree Days 16    
Moisture  
Dew Point 34 °F    
Average Humidity 59    
Maximum Humidity 93    
Minimum Humidity 33    
Precipitation  
Precipitation 0.00 in - - ()
Sea Level Pressure  
Sea Level Pressure 30.02 in    
Wind  
Wind Speed 14 mph (WNW)    
Max Wind Speed 32 mph    
Max Gust Speed 41 mph    
Visibility 8 miles    
Events      
Averages and records for this station are not official NWS values.
T = Trace of Precipitation, MM = Missing Value Source: NWS Daily Summary

Daily Weather History Graph

Daily Weather History Graph

Search for Another Location

Airport or City:

Trip Planner

Search our weather history database for the weather conditions in past years. The results will help you decide how hot, cold, wet, or windy it might be!

Date:

Astronomy

May. 11, 2013 Rise Set
Actual Time 5:45 AM CDT 8:10 PM CDT
Civil Twilight 5:13 AM CDT 8:42 PM CDT
Nautical Twilight 4:34 AM CDT 9:21 PM CDT
Astronomical Twilight 3:51 AM CDT 10:05 PM CDT
Moon 6:52 AM CDT (5/11) 9:51 PM CDT (5/11)
Length of Visible Light 15h 28m
Length of Day
14h 25m
Waxing Crescent, 3% of the Moon is Illuminated
May 11
Waxing Crescent
May 17
First Quarter
May 24
Full
May 31
Last Quarter
Jun 8
New

Hourly Weather History & Observations

Time (CDT) Temp. Windchill Dew Point Humidity Pressure Visibility Wind Dir Wind Speed Gust Speed Precip Events Conditions
12:15 AM 44.6 °F 41.4 °F 39.2 °F 81% 30.02 in 5.0 mi West 5.8 mph - N/A   Clear
12:35 AM 44.6 °F 42.2 °F 39.2 °F 81% 30.01 in 4.0 mi WSW 4.6 mph - N/A   Clear
12:55 AM 46.4 °F 45.2 °F 42.8 °F 87% 30.01 in 0.8 mi WSW 3.5 mph - N/A   Unknown
1:15 AM 44.6 °F 42.2 °F 42.8 °F 93% 30.00 in 0.2 mi SSW 4.6 mph - N/A   Unknown
1:35 AM 44.6 °F 40.7 °F 41.0 °F 87% 30.00 in 0.5 mi SSW 6.9 mph - N/A   Unknown
1:55 AM 44.6 °F 41.4 °F 41.0 °F 87% 29.99 in 0.5 mi South 5.8 mph - N/A   Unknown
2:15 AM 42.8 °F 39.3 °F 39.2 °F 87% 29.99 in 0.2 mi SW 5.8 mph - N/A   Unknown
2:35 AM 42.8 °F 39.3 °F 39.2 °F 87% 29.98 in 0.8 mi SSW 5.8 mph - N/A   Unknown
2:55 AM 42.8 °F 38.6 °F 39.2 °F 87% 29.98 in 0.5 mi SSW 6.9 mph - N/A   Unknown
3:15 AM 42.8 °F 38.6 °F 39.2 °F 87% 29.97 in 1.0 mi South 6.9 mph - N/A   Clear
3:35 AM 42.8 °F 38.6 °F 39.2 °F 87% 29.97 in 1.5 mi SSW 6.9 mph - N/A   Clear
3:55 AM 42.8 °F 38.0 °F 39.2 °F 87% 29.97 in 0.5 mi SSW 8.1 mph - N/A   Unknown
4:15 AM 42.8 °F 37.5 °F 39.2 °F 87% 29.96 in 0.8 mi South 9.2 mph - N/A   Unknown
4:35 AM 44.6 °F 40.2 °F 41.0 °F 87% 29.96 in 2.5 mi SSW 8.1 mph - N/A   Clear
4:55 AM 42.8 °F 38.6 °F 39.2 °F 87% 29.95 in 2.0 mi SSW 6.9 mph - N/A   Clear
5:15 AM 44.6 °F 40.7 °F 41.0 °F 87% 29.94 in 2.0 mi South 6.9 mph - N/A   Clear
5:35 AM 44.6 °F 40.7 °F 41.0 °F 87% 29.94 in 3.0 mi SSW 6.9 mph - N/A   Clear
5:55 AM 46.4 °F 42.4 °F 42.8 °F 87% 29.93 in 3.0 mi South 8.1 mph - N/A   Clear
6:15 AM 46.4 °F 42.4 °F 44.6 °F 93% 29.93 in 3.0 mi SSW 8.1 mph - N/A   Clear
6:35 AM 48.2 °F - 44.6 °F 87% 29.93 in 5.0 mi SW 11.5 mph - N/A   Clear
6:55 AM 48.2 °F - 44.6 °F 87% 29.93 in 4.0 mi WSW 11.5 mph - N/A   Mostly Cloudy
7:15 AM 50.0 °F - 46.4 °F 87% 29.92 in 7.0 mi WSW 13.8 mph - N/A   Mostly Cloudy
7:35 AM 50.0 °F - 46.4 °F 87% 29.92 in 7.0 mi West 15.0 mph - N/A   Scattered Clouds
7:55 AM 51.8 °F - 46.4 °F 82% 29.92 in 8.0 mi West 17.3 mph - N/A   Clear
8:15 AM 51.8 °F - 46.4 °F 82% 29.92 in 10.0 mi WNW 24.2 mph 29.9 mph N/A   Clear
8:35 AM 53.6 °F - 44.6 °F 72% 29.93 in 10.0 mi WNW 25.3 mph 31.1 mph N/A   Clear
8:55 AM 53.6 °F - 42.8 °F 67% 29.94 in 10.0 mi NW 19.6 mph 31.1 mph N/A   Clear
9:15 AM 53.6 °F - 42.8 °F 67% 29.94 in 10.0 mi NW 26.5 mph 31.1 mph N/A   Clear
9:35 AM 53.6 °F - 42.8 °F 67% 29.95 in 10.0 mi NW 26.5 mph 32.2 mph N/A   Clear
9:55 AM 55.4 °F - 41.0 °F 58% 29.95 in 10.0 mi NW 27.6 mph 33.4 mph N/A   Clear
10:15 AM 55.4 °F - 37.4 °F 51% 29.95 in 10.0 mi NW 25.3 mph 34.5 mph N/A   Clear
10:35 AM 55.4 °F - 33.8 °F 44% 29.96 in 10.0 mi NNW 31.1 mph 40.3 mph N/A   Clear
10:55 AM 55.4 °F - 35.6 °F 47% 29.97 in 10.0 mi NW 28.8 mph 40.3 mph N/A   Clear
11:15 AM 55.4 °F - 28.4 °F 36% 29.98 in 10.0 mi NW 29.9 mph 38.0 mph N/A   Clear
11:35 AM 55.4 °F - 30.2 °F 38% 29.98 in 10.0 mi NW 29.9 mph 36.8 mph N/A   Clear
11:55 AM 55.4 °F - 26.6 °F 33% 29.99 in 10.0 mi NNW 31.1 mph 38.0 mph N/A   Clear
12:15 PM 57.2 °F - 30.2 °F 36% 30.00 in 10.0 mi NW 29.9 mph 38.0 mph N/A   Clear
12:35 PM 57.2 °F - 30.2 °F 36% 30.01 in 10.0 mi NW 26.5 mph 36.8 mph N/A   Clear
12:55 PM 57.2 °F - 28.4 °F 33% 30.01 in 10.0 mi NW 28.8 mph 38.0 mph N/A   Clear
1:15 PM 57.2 °F - 30.2 °F 36% 30.01 in 10.0 mi NW 27.6 mph 33.4 mph N/A   Clear
1:35 PM 57.2 °F - 30.2 °F 36% 30.02 in 10.0 mi NW 25.3 mph 38.0 mph N/A   Partly Cloudy
1:55 PM 55.4 °F - 28.4 °F 36% 30.03 in 10.0 mi NW 32.2 mph 40.3 mph N/A   Scattered Clouds
2:15 PM 53.6 °F - 26.6 °F 35% 30.03 in 10.0 mi NW 29.9 mph 35.7 mph N/A   Mostly Cloudy
2:35 PM 55.4 °F - 28.4 °F 36% 30.04 in 10.0 mi NW 27.6 mph 33.4 mph N/A   Mostly Cloudy
2:55 PM 55.4 °F - 26.6 °F 33% 30.04 in 10.0 mi NW 29.9 mph 35.7 mph N/A   Scattered Clouds
3:15 PM 55.4 °F - 26.6 °F 33% 30.04 in 10.0 mi NW 27.6 mph 41.4 mph N/A   Scattered Clouds
3:35 PM 55.4 °F - 28.4 °F 36% 30.05 in 10.0 mi NW 25.3 mph 32.2 mph N/A   Scattered Clouds
3:55 PM 53.6 °F - 26.6 °F 35% 30.05 in 10.0 mi NW 27.6 mph 33.4 mph N/A   Scattered Clouds
4:15 PM 55.4 °F - 28.4 °F 36% 30.06 in 10.0 mi NW 28.8 mph 38.0 mph N/A   Mostly Cloudy
4:35 PM 53.6 °F - 26.6 °F 35% 30.06 in 10.0 mi NW 23.0 mph 31.1 mph N/A   Mostly Cloudy
4:55 PM 51.8 °F - 26.6 °F 38% 30.07 in 10.0 mi NW 25.3 mph 32.2 mph N/A   Mostly Cloudy
5:15 PM 53.6 °F - 28.4 °F 38% 30.07 in 10.0 mi NW 24.2 mph 32.2 mph N/A   Partly Cloudy
5:35 PM 53.6 °F - 24.8 °F 33% 30.08 in 10.0 mi NW 28.8 mph 40.3 mph N/A   Clear
5:55 PM 53.6 °F - 26.6 °F 35% 30.08 in 10.0 mi NW 23.0 mph 32.2 mph N/A   Clear
6:15 PM 51.8 °F - 26.6 °F 38% 30.09 in 10.0 mi NNW 19.6 mph 28.8 mph N/A   Mostly Cloudy
6:35 PM 51.8 °F - 26.6 °F 38% 30.09 in 10.0 mi NNW 23.0 mph 27.6 mph N/A   Scattered Clouds
6:55 PM 51.8 °F - 26.6 °F 38% 30.09 in 10.0 mi NW 13.8 mph - N/A   Clear
7:15 PM 50.0 °F - 26.6 °F 40% 30.09 in 10.0 mi NW 16.1 mph - N/A   Clear
7:35 PM 50.0 °F - 26.6 °F 40% 30.09 in 10.0 mi NNW 11.5 mph - N/A   Clear
7:55 PM 48.2 °F - 26.6 °F 43% 30.09 in 10.0 mi NW 13.8 mph - N/A   Clear
8:15 PM 46.4 °F 41.1 °F 26.6 °F 46% 30.09 in 10.0 mi NW 11.5 mph - N/A   Clear
8:35 PM 44.6 °F 39.7 °F 26.6 °F 49% 30.10 in 10.0 mi WNW 9.2 mph - N/A   Clear
9:15 PM 42.8 °F 37.0 °F 26.6 °F 53% 30.11 in 10.0 mi WNW 10.4 mph - N/A   Clear
9:35 PM 41.0 °F 35.2 °F 26.6 °F 57% 30.11 in 10.0 mi WNW 9.2 mph - N/A   Clear
9:55 PM 41.0 °F 35.2 °F 26.6 °F 57% 30.12 in 10.0 mi WNW 9.2 mph - N/A   Clear
10:15 PM 41.0 °F 34.7 °F 26.6 °F 57% 30.13 in 10.0 mi NW 10.4 mph - N/A   Clear
10:35 PM 42.8 °F 36.6 °F 26.6 °F 53% 30.13 in 10.0 mi NW 11.5 mph - N/A   Clear
10:55 PM 42.8 °F 36.6 °F 26.6 °F 53% 30.13 in 10.0 mi NW 11.5 mph - N/A   Clear
11:15 PM 42.8 °F 35.8 °F 26.6 °F 53% 30.14 in 10.0 mi NNW 13.8 mph - N/A   Clear
11:35 PM 41.0 °F 34.7 °F 26.6 °F 57% 30.14 in 10.0 mi NW 10.4 mph - N/A   Clear
11:55 PM 39.2 °F 33.0 °F 26.6 °F 61% 30.14 in 10.0 mi NW 9.2 mph - N/A   Clear